Simultaneous Nadir Overpasses (SNOs) Predictions

Prediction of SNOs between GOES-16 and LANDSAT-8 Satellite Orbit:

Table of predicted SNOs for the next 14.0 days since TLE Epoch: 9/19/2020
Index Date Time (GOES-16) GOES-16 Lat,Lon LANDSAT-8 Lat,Lon Distance(km) Time Diff (sec)
1 09/19/2020 03:11:12 -0.01, -75.20 0.12, -74.68 59.41 1
2 09/21/2020 02:57:42 -0.01, -75.21 0.73, -71.72 397.57 80
3 09/21/2020 15:21:38 0.01, -75.24 0.35, -76.88 186.33 80
4 09/23/2020 15:06:47 0.02, -75.26 -0.26, -73.92 152.36 80
5 09/24/2020 03:30:51 -0.02, -75.25 -0.86, -79.11 438.85 80
6 09/25/2020 14:54:36 0.02, -75.29 -0.87, -70.96 491.56 80
7 09/26/2020 03:18:41 -0.03, -75.28 -0.19, -76.16 99.51 80
8 09/28/2020 03:03:50 -0.03, -75.31 0.43, -73.20 240.68 80
9 09/28/2020 15:27:46 0.04, -75.34 0.66, -78.36 342.69 80
10 09/30/2020 15:15:35 0.03, -75.39 0.04, -75.40 1.62 80
11 10/02/2020 15:00:45 0.03, -75.44 -0.64, -72.45 340.36 80
